Starlink 32783

operational
NORAD ID: 62606 Int'l Des: 2025-008 Owner: SPXS Country: US Constellation: starlink
LEOCIRCULAR

关于 Starlink 32783

正在加载描述...

实时位置

正在加载3D地球...

即将过境

高度历史

Altitude vs Time

uPlot chart will show altitude changes over time

两行轨道根数

1 62606U 25008V 25305.98162524 .00027349 00000-0 99922-3 0 9996
2 62606 43.0043 279.1043 0002139 274.2159 85.8449 15.27594156 46033
Epoch: Nov 1, 2025 • Age: 43 hours

当前状态

高度 485.9 km
速度 7.63 km/s
星下点 36.57°N, 76.75°E
发射日期 Jan 13, 2025
运行时间 0.8 years
类型 internet

技术详情

分类 Payload
质量 730.00 kg
干质量 700.00 kg
总质量 730.00 kg
长度 0.30 m
直径 4.10 m
跨度 29.00 m
形状 Box + pan
制造商 SPXS
平台类型 Starlink V2M
阶段状态 In Orbit
所有者/国家 SPXS/US

大型星座

Loading constellations...